Weather observations for the past three days for
Homer, Homer Airport
Imperial (Metric)
Date Time (akdt) Wind (mph) Vis. (mi.) Weather Sky Cond. Temperature (ºF) Relative Humidity Wind Chill (°F) Heat Index (°F) Pressure Precipitation (in)
Air Dwpt 6 hour altimeter (in) sea level (mb) 1 hr 3 hr 6 hr
Max. Min.
19 04:53 Calm 10.00 Overcast BKN015 OVC033 54 46.9 77% 30.17 1021.7
19 03:53 N 3 10.00 Overcast OVC033 54 46.9 55 53.1 77% 30.17 1021.6
19 02:53 Calm 10.00 Overcast SCT029 OVC038 54 46.9 77% 30.17 1021.6
19 01:53 Calm 7.00 Overcast FEW024 BKN038 OVC049 54 46.9 77% 30.17 1021.7
19 00:53 Calm 10.00 Overcast BKN028 OVC037 54 46.9 77% 30.17 1021.5
18 22:53 SW 3 10.00 Overcast FEW031 OVC045 54 46.9 77% 30.15 1020.9
18 21:53 SW 3 10.00 Overcast OVC045 55 46.9 57.9 55 74% 30.14 1020.5
18 20:53 S 3 10.00 Overcast OVC050 55.9 46.9 72% 30.12 1020.1
18 19:53 Calm 10.00 Overcast OVC050 55.9 46.9 72% 30.12 1019.8
18 18:53 SW 3 10.00 Overcast OVC055 55.9 46.9 72% 30.11 1019.5
18 17:53 SE 5 10.00 Overcast OVC060 57.9 48 70% 30.1 1019.2
18 16:53 Calm 10.00 Overcast OVC060 57 46.9 69% 30.09 1019.1
18 15:53 Calm 10.00 Overcast BKN047 OVC060 57 46 57 53.1 67% 30.09 1018.9
18 14:53 SW 3 10.00 Overcast OVC055 57 46.9 69% 30.08 1018.6
18 13:53 W 3 10.00 Overcast OVC055 55.9 48 75% 30.07 1018.2
18 12:53 SW 5 10.00 Overcast OVC055 55 48.9 80% 30.06 1017.8
18 11:53 Calm 10.00 Overcast OVC055 54 50 87% 30.04 1017.4
18 10:53 E 3 10.00 Overcast OVC055 53.1 48.9 86% 30.03 1016.9
18 09:53 Calm 10.00 Overcast OVC055 53.1 48.9 54 51.1 86% 30.02 1016.5 0.01 0.01
18 08:53 Calm 10.00 Overcast BKN055 OVC100 53.1 48 83% 30.01 1016.1
18 07:53 NE 3 10.00 Light Rain OVC065 51.1 48 89% 29.99 1015.6
18 06:53 N 3 10.00 Overcast OVC060 51.1 46.9 86% 29.98 1015.1
18 05:53 Calm 10.00 Overcast OVC060 51.1 46.9 86% 29.97 1014.7
18 04:53 Calm 10.00 Overcast OVC060 51.1 46.9 86% 29.96 1014.5
18 03:53 Calm 10.00 Overcast FEW060 OVC075 51.1 46.9 54 51.1 86% 29.95 1014.2
18 02:53 Calm 10.00 Overcast OVC060 52 48 86% 29.95 1014.1
18 01:53 Calm 10.00 Overcast SCT037 OVC060 53.1 48 83% 29.94 1013.9
18 00:53 Calm 10.00 Overcast OVC060 53.1 48 83% 29.93 1013.6
17 23:53 W 6 10.00 Overcast OVC060 53.1 46.9 80% 29.93 1013.4
17 22:53 W 5 10.00 Overcast OVC065 53.1 46 77% 29.92 1013.1
17 21:53 W 6 10.00 Overcast BKN039 OVC047 53.1 46 55.9 53.1 77% 29.91 1012.8
17 20:53 W 3 10.00 Overcast SCT032 BKN045 OVC060 54 45 72% 29.9 1012.6
17 19:53 W 7 10.00 Overcast FEW035 FEW045 OVC050 54 45 72% 29.9 1012.6
17 18:53 W 8 10.00 Light Rain FEW042 BKN050 OVC060 54 45 72% 29.9 1012.7
17 17:53 W 10 10.00 Overcast BKN060 OVC070 55 45 69% 29.91 1012.7
17 16:53 W 12 10.00 Overcast FEW050 OVC065 55.9 45 67% 29.9 1012.6
17 15:53 W 9 10.00 Overcast OVC060 55 45 57 54 69% 29.9 1012.6
17 14:53 W 12 10.00 Overcast OVC060 55 46.9 74% 29.9 1012.6
17 13:53 W 12 G 18 10.00 Overcast OVC065 55.9 48 75% 29.91 1012.8
17 12:53 W 13 10.00 Overcast BKN035 OVC060 55.9 46 70% 29.91 1012.7
17 11:53 W 10 10.00 Mostly Cloudy SCT035 BKN060 55 46.9 74% 29.9 1012.6
17 10:53 S 5 10.00 Mostly Cloudy SCT017 SCT034 BKN055 55 48.9 80% 29.9 1012.6
17 09:53 Calm 10.00 Overcast SCT028 BKN033 OVC055 55 50 55 50 83% 29.9 1012.6
17 08:53 E 3 10.00 Overcast SCT007 OVC055 54 50 87% 29.91 1012.8
17 07:53 E 6 10.00 Overcast FEW008 OVC060 53.1 50 89% 29.91 1012.9
17 06:53 Calm 10.00 Overcast SCT018 OVC060 51.1 48 89% 29.92 1013.0
17 05:53 Calm 10.00 Overcast BKN015 BKN023 OVC060 51.1 46.9 86% 29.93 1013.4
17 04:53 Calm 10.00 Overcast OVC060 51.1 46.9 86% 29.93 1013.6
17 02:53 Calm 10.00 Overcast OVC035 53.1 46.9 80% 29.94 1013.9
17 01:53 Calm 10.00 Overcast FEW037 OVC055 53.1 46.9 80% 29.94 1014.0
17 00:53 Calm 10.00 Overcast OVC039 54 48 80% 29.94 1013.9
16 23:53 W 3 10.00 Overcast SCT042 OVC050 54 46.9 77% 29.94 1014.0
16 22:53 Calm 10.00 Overcast OVC045 55 46.9 74% 29.95 1014.1
16 21:53 W 7 10.00 Overcast OVC048 54 48.9 57.9 54 83% 29.94 1013.8
16 20:53 SW 7 10.00 Overcast OVC047 55 48 77% 29.94 1013.7
16 19:53 W 8 10.00 Overcast OVC047 55 48 77% 29.93 1013.6
16 18:53 W 8 10.00 Overcast SCT048 OVC060 55.9 48 75% 29.93 1013.6
16 17:53 W 9 10.00 Overcast BKN048 OVC060 55.9 48.9 77% 29.93 1013.4
16 16:53 W 9 10.00 Overcast OVC050 57.9 48.9 72% 29.93 1013.6
16 15:53 W 9 10.00 Overcast OVC047 57 48 57.9 53.1 72% 29.93 1013.4
16 14:53 W 7 10.00 Overcast OVC060 57.9 46.9 67% 29.92 1013.2
16 13:53 SW 5 10.00 Overcast OVC050 55.9 46.9 72% 29.92 1013.0
16 12:53 SW 5 10.00 Overcast SCT050 OVC060 55 48 77% 29.91 1012.9
16 11:53 S 3 10.00 Overcast FEW046 BKN060 OVC075 55 48 77% 29.91 1012.7
16 10:53 SE 5 10.00 Overcast BKN070 OVC080 54 48 80% 29.9 1012.6
16 09:53 SE 3 10.00 Mostly Cloudy BKN070 54 48 54 50 80% 29.89 1012.3
16 08:53 NE 3 10.00 Light Rain OVC065 53.1 48 83% 29.88 1011.9
16 07:53 Calm 10.00 Overcast OVC065 52 48.9 89% 29.87 1011.6
16 06:53 Calm 10.00 Light Rain OVC060 51.1 48 89% 29.86 0.0
16 05:53 Calm 10.00 Light Rain BKN050 OVC065 50 46.9 89% 29.85 1010.9
Date Time (akdt) Wind (mph) Vis. (mi.) Weather Sky Cond. Air Dwpt Max. Min. Relative Humidity Wind Chill (°F) Heat Index (°F) altimeter (in) sea level (mb) 1 hr 3 hr 6 hr
6 hour
Temperature (ºF) Pressure Precipitation (in)